IBE952 LEMD-GCXO

Flight info

Callsign IBE952
Flight time N/A
Altitude 29000
Route CCS2X CCS DCT ELVAR DCT BAROK UN873 SAMAR SAMAR1L
Aircraft A346/H-SDE2E3FGHIJ3J4J5M1RWXY/LB1D1

Departure

Time 2026-05-07 10:08
Airport Adolfo Suárez Madrid–Barajas Airport (LEMD)

Arrival

Time N/A
Airport Tenerife Norte-Ciudad de La Laguna Airport (GCXO)
Time Latitude Longitude Altitude Speed Heading
2026-05-07 09:35 40.48693 -3.58943 2040 ft 0 kts 271°
2026-05-07 09:57 40.48692 -3.58915 2035 ft 4 kts 270°
2026-05-07 09:57 40.48693 -3.58887 2041 ft 4 kts 270°
2026-05-07 09:57 40.48690 -3.58854 2041 ft 4 kts 286°
2026-05-07 09:58 40.48680 -3.58826 2041 ft 4 kts 311°
2026-05-07 09:58 40.48664 -3.58811 2041 ft 4 kts 346°
2026-05-07 09:58 40.48641 -3.58809 2039 ft 4 kts 359°
2026-05-07 09:58 40.48616 -3.58809 2037 ft 1 kts 359°
2026-05-07 09:59 40.48615 -3.58809 2037 ft 0 kts 359°
2026-05-07 10:01 40.48617 -3.58809 2030 ft 1 kts 359°
2026-05-07 10:02 40.48631 -3.58809 2039 ft 3 kts 359°
2026-05-07 10:02 40.48664 -3.58810 2038 ft 6 kts 359°
2026-05-07 10:02 40.48714 -3.58810 2038 ft 8 kts 359°
2026-05-07 10:02 40.48781 -3.58812 2037 ft 11 kts 359°
2026-05-07 10:03 40.48864 -3.58813 2037 ft 13 kts 359°
2026-05-07 10:03 40.48958 -3.58814 2034 ft 14 kts 359°
2026-05-07 10:03 40.49059 -3.58816 2030 ft 15 kts 358°
2026-05-07 10:03 40.49173 -3.58817 2033 ft 15 kts
2026-05-07 10:04 40.49242 -3.58750 2039 ft 14 kts 73°
2026-05-07 10:04 40.49243 -3.58617 2037 ft 16 kts 89°
2026-05-07 10:04 40.49244 -3.58451 2032 ft 20 kts 90°
2026-05-07 10:04 40.49242 -3.58246 2014 ft 24 kts 90°
2026-05-07 10:05 40.49243 -3.58005 2006 ft 28 kts 90°
2026-05-07 10:05 40.49243 -3.57745 2000 ft 27 kts 90°
2026-05-07 10:05 40.49267 -3.57554 1996 ft 22 kts 60°
2026-05-07 10:05 40.49373 -3.57455 1993 ft 8 kts 10°
2026-05-07 10:06 40.49405 -3.57452 1993 ft 0 kts 358°
2026-05-07 10:06 40.49411 -3.57452 1993 ft 6 kts 358°
2026-05-07 10:07 40.49664 -3.57457 1994 ft 68 kts 360°
2026-05-07 10:07 40.50338 -3.57459 2001 ft 124 kts 360°
2026-05-07 10:07 40.51365 -3.57468 2005 ft 170 kts 359°
2026-05-07 10:07 40.52633 -3.57486 2324 ft 185 kts 359°
2026-05-07 10:08 40.53920 -3.57523 2943 ft 185 kts 359°
2026-05-07 10:08 40.55215 -3.57582 3620 ft 186 kts 360°
2026-05-07 10:08 40.56536 -3.57594 4082 ft 196 kts
2026-05-07 10:08 40.57958 -3.57583 4399 ft 212 kts
2026-05-07 10:09 40.59486 -3.57515 4725 ft 228 kts
2026-05-07 10:09 40.61055 -3.56954 5123 ft 240 kts 24°
2026-05-07 10:09 40.62597 -3.56039 5763 ft 245 kts 26°
2026-05-07 10:09 40.64194 -3.55194 6425 ft 254 kts 15°
2026-05-07 10:10 40.66001 -3.54866 6854 ft 272 kts 359°
2026-05-07 10:10 40.67937 -3.55166 7341 ft 287 kts 349°
2026-05-07 10:10 40.69926 -3.55553 8062 ft 291 kts 356°
2026-05-07 10:10 40.71954 -3.55684 8885 ft 293 kts 358°
2026-05-07 10:11 40.74008 -3.55840 9671 ft 298 kts 348°
2026-05-07 10:11 40.75957 -3.56790 10360 ft 302 kts 326°
2026-05-07 10:11 40.77547 -3.58647 10836 ft 313 kts 304°
2026-05-07 10:11 40.78520 -3.61212 11213 ft 325 kts 282°
2026-05-07 10:12 40.78685 -3.64224 11587 ft 337 kts 260°
2026-05-07 10:12 40.78175 -3.67310 11983 ft 352 kts 254°